Regional Weather Roundup
Issued by NWS Goodland, KS

Home | Current Version | Previous Version | Text Only | Print | Product List | Glossary Off
Versions: 1 2 3 4 5 6 7 8 9 10 11 12 13 14 15 16 17 18 19 20 21 22 23 24 25 26 27 28 29 30 31 32 33 34 35 36 37 38 39 40 41 42 43 44 45 46 47 48 49 50

116
ASUS43 KGLD 130608
RWRGLD

GOODLAND FORECAST AREA HOURLY WEATHER ROUNDUP
NATIONAL WEATHER SERVICE GOODLAND KS
1100 PM MST FRI FEB 12 2016

...OFFICIAL OBSERVATIONS...

CITY           SKY/WX    TMP DP  RH WIND       PRES   REMARKS
GOODLAND KS    CLOUDY    28  27  96 S20       30.36F WCI  15
HILL CITY KS   CLOUDY    27  24  89 E10       30.48S WCI  17
IMPERIAL NEB   CLOUDY    29  28  96 SE15      30.36F WCI  18
MCCOOK NEB     FOG       26  25  96 SE12      30.44F VSB 1/4 WCI  16
AKRON CO       FOG       30  30 100 SE20      30.26S VSB 3/4 WCI  17
BURLINGTON CO  FOG       29  27  92 SE18      30.33S VSB 1/2 WCI  16
LIMON CO       FOG       29  29 100 S15       30.27F VSB 3/4 WCI  18
$$

...UNOFFICIAL OBSERVATIONS...

CITY           SKY/WX    TMP DP  RH WIND       PRES   REMARKS
COLBY KS       CLOUDY    30  30 100 SE16      30.40F WCI  19
GOVE KS          N/A     29  32 100 MISG        N/A
LENORA KS        N/A     24  32 100 MISG        N/A
NORTON KS      CLOUDY    25  18  74 E10       30.46S WCI  15
SHARON SPRINGS   N/A     29  27  91 SE10G24     N/A  WCI  20
TRIBUNE KS     CLOUDY    28  27  93 E10       30.39S WCI  19
KIT CARSON CO    N/A     29  27  90 MISG        N/A
YUMA CO          N/A     30  29  96 CALM        N/A
$$




USA.gov is the U.S. government's official web portal to all federal, state and local government web resources and services.